Printer-friendly version
Follow the MPC on Twitter Follow the MPC on Facebook The MPC blog
Minor Planet Center

MPEC 2010-N05 : 2010 NA

The following Minor Planet Electronic Circular may be linked-to from your own Web pages, but must not otherwise be redistributed electronically.

A form allowing access to any MPEC is at the bottom of this page.


Read MPEC 2010-N04 Read MPEC 2010-N06


M.P.E.C. 2010-N05                                Issued 2010 July 3, 01:04 UT

     The Minor Planet Electronic Circulars contain information on unusual
         minor planets and routine data on comets.  They are published
   on behalf of Commission 20 of the International Astronomical Union by the
          Minor Planet Center, Smithsonian Astrophysical Observatory,
                          Cambridge, MA 02138, U.S.A.

             Prepared using the Tamkin Foundation Computer Network

                              MPC@CFA.HARVARD.EDU
       URL http://www.minorplanetcenter.org/iau/mpc.html  ISSN 1523-6714

                                    2010 NA

Observations:
     K10N00A* C2010 07 01.27784 19 05 15.42 +50 43 45.6          18.4   EN005704
     K10N00A  C2010 07 01.28841 19 05 15.87 +50 47 00.5          18.5   EN005704
     K10N00A  C2010 07 01.29893 19 05 16.29 +50 50 14.9          18.5   EN005704
     K10N00A  C2010 07 01.30952 19 05 16.66 +50 53 30.2          18.7   EN005704
     K10N00A  C2010 07 01.32002 19 05 17.15 +50 56 43.7          18.6   EN005704
     K10N00A KC2010 07 02.02985 19 06 21.71 +54 40 50.7          18.8 R EN005473
     K10N00A KC2010 07 02.03263 19 06 21.92 +54 41 44.6          18.8 R EN005473
     K10N00A KC2010 07 02.20346 19 06 45.63 +55 37 35.7          18.5 C EN005H36
     K10N00A KC2010 07 02.20874 19 06 46.01 +55 39 20.3          18.3 C EN005H36
     K10N00A KC2010 07 02.21401 19 06 46.41 +55 41 04.6          18.1 C EN005H36
     K10N00A KC2010 07 02.22460 19 06 47.21 +55 44 34.6          18.0 C EN005H36
     K10N00A KC2010 07 02.26809 19 06 53.19 +55 58 51.1          16.7 C EN005G56
     K10N00A KC2010 07 02.27001 19 06 53.34 +55 59 30.1          17.4 C EN005G56
     K10N00A KC2010 07 02.27192 19 06 53.45 +56 00 07.6          18.2 C EN005G56
     K10N00A  C2010 07 02.28055919 06 50.01 +56 03 03.8          18.7 V EN005H21
     K10N00A  C2010 07 02.28357819 06 50.24 +56 04 03.4          18.7 V EN005H21
     K10N00A  C2010 07 02.28672219 06 50.46 +56 05 05.5          18.6 V EN005H21
     K10N00A KC2010 07 02.32540 19 06 52.71 +56 17 54.8          18.2 R EN005850
     K10N00A KC2010 07 02.33255 19 06 53.22 +56 20 15.3          17.7 R EN005850
     K10N00A KC2010 07 02.33501 19 06 53.38 +56 21 04.4          17.5 R EN005850
     K10N00A KC2010 07 02.33751 19 06 53.59 +56 21 53.2          18.3 R EN005850
     K10N00A KC2010 07 02.34012 19 06 53.79 +56 22 44.4          17.8 R EN005850
     K10N00A KC2010 07 02.97322119 08 20.28 +59 56 42.7          18.0 V EN005B03
     K10N00A KC2010 07 02.97338119 08 20.28 +59 56 45.8          18.0 V EN005B03
     K10N00A KC2010 07 02.98283019 08 21.25 +60 00 01.3          18.2 V EN005B03
     K10N00A KC2010 07 02.98299119 08 21.25 +60 00 04.8          18.4 V EN005B03
     K10N00A KC2010 07 02.99235419 08 22.28 +60 03 18.1          18.2 V EN005B03
     K10N00A KC2010 07 02.99255019 08 22.28 +60 03 22.0          18.1 V EN005B03

Observer details:
473 Remanzacco.  Observers L. Donato, V. Gonano, E. Guido, G. Sostero.  0.45-m
    f/4.4 Newtonian reflector + CCD.
704 Lincoln Laboratory ETS, New Mexico.  Observers M. Blythe, G. Spitz,
    R. Brungard, J. Paige, P. Festler.  1.0-m f/2.15 reflector + CCD.
850 Cordell-Lorenz Observatory, Sewanee.  Observers D. T. Durig,
    M. Nshimiyimana.  0.30-m f/3.1 Schmidt-Cassegrain + 765x510 CCD.
B03 Alter Satzberg, Vienna.  Observer M. Pietschnig.  0.35-m f/5.8
    Schmidt-Cassegrain + CCD.
G56 Walnut Creek.  Observer G. McKeegan.  0.28-m Schmidt-Cassegrain + CCD
    + f/6.2 focal reducer.
H21 Astronomical Research Observatory, Westfield.  Observer R. Holmes.
    Measurer S. Foglia.
H36 Sandlot Observatory, Scranton.  Observer G. Hug.  0.56-m reflector + CCD.

Orbital elements:
2010 NA                                                  Earth MOID = 0.1014 AU
Epoch 2010 July 23.0 TT = JDT 2455400.5                 MPC
M 346.21395              (2000.0)            P               Q
n   0.43081793     Peri.  202.91282     +0.96213073     -0.27223263
a   1.7362284      Node   172.84156     +0.26419329     +0.91870325
e   0.6576104      Incl.    6.41507     +0.06712946     +0.28613586
P   2.29           H   20.4           G   0.15           U   8
Residuals in seconds of arc
100701 704  0.5+  0.0     100702 H36  0.7+  0.5-    100702 850  0.4-  0.3-
100701 704  0.5+  0.2-    100702 G56  0.6-  0.4-    100702 850  0.3-  0.6-
100701 704  0.3+  0.0     100702 G56  0.5-  0.3+    100702 B03  0.3+  0.1+
100701 704  0.5-  0.1-    100702 G56  0.8-  0.4-    100702 B03  0.2+  0.1-
100701 704  0.0   0.3-    100702 H21  0.0   0.1-    100702 B03  0.1+  0.1+
100702 473  0.1+  1.4+    100702 H21  0.2+  0.2-    100702 B03  0.0   0.3+
100702 473  0.3+  1.4+    100702 H21  0.2+  0.3-    100702 B03  0.5+  0.0
100702 H36  0.1+  0.3+    100702 850  0.5-  0.2+    100702 B03  0.3+  0.1-
100702 H36  0.1+  0.1+    100702 850  0.5-  0.4-
100702 H36  0.3+  0.3-    100702 850  0.6-  0.2+

Ephemeris:
2010 NA                  a,e,i = 1.74, 0.66, 6                   q = 0.5945
Date    TT    R. A. (2000) Decl.     Delta      r     Elong.  Phase     V
2010 07 03    19 08.40   +60 05.4    0.111    1.036    96.8    77.1    18.4
2010 07 06    19 27.31   +78 17.3    0.107    1.002    78.9    95.1    18.9
2010 07 09    06 04.28   +83 28.6    0.113    0.967    61.4   112.7    19.9
2010 07 12    06 42.52   +68 41.0    0.129    0.933    47.1   127.1    21.2
2010 07 15    06 48.86   +57 26.1    0.152    0.899    36.9   137.3    22.6
2010 07 18    06 51.81   +49 08.7    0.180    0.866    30.2   143.8    23.7

Carl W. Hergenrother         (C) Copyright 2010 MPC           M.P.E.C. 2010-N05

Read MPEC 2010-N04 Read MPEC 2010-N06


MPEC number:

Enter an MPEC number in one of the following forms:

  • 1997-B01 (the full form)
  • J97B01 (the packed version of the full form)
  • B01 (the abbreviated form)

Valid HTML 4.01!